DBDHM LSZH-EDXW

Flight info

Callsign DBDHM
Flight time 1h 8m
Altitude 45000
Route DEGES2X DEGES Z1 ETAGO DCT HAREM DCT LOHRE DCT ELNAT DCT ELSOB Y348 OMWEG DCT BADOS DCT OLDIP DCT
Aircraft C700/M-SBDGHM1RWXY/LB2

Departure

Time 2026-05-05 18:31
Airport Zürich Airport (LSZH)

Arrival

Time 2026-05-05 19:39
Airport Westerland Sylt Airport (EDXW)
Time Latitude Longitude Altitude Speed Heading
2026-05-05 17:57 47.45390 8.57343 1399 ft 0 kts
2026-05-05 17:57 47.45546 8.56575 1397 ft 0 kts 321°
2026-05-05 18:21 47.45550 8.56570 1396 ft 3 kts 324°
2026-05-05 18:21 47.45585 8.56594 1391 ft 10 kts 79°
2026-05-05 18:21 47.45577 8.56704 1391 ft 12 kts 96°
2026-05-05 18:22 47.45567 8.56839 1391 ft 14 kts 96°
2026-05-05 18:22 47.45562 8.56912 1391 ft 0 kts 95°
2026-05-05 18:23 47.45561 8.56935 1394 ft 5 kts 93°
2026-05-05 18:24 47.45562 8.56951 1391 ft 7 kts 85°
2026-05-05 18:24 47.45580 8.57005 1398 ft 0 kts 40°
2026-05-05 18:26 47.45581 8.57006 1398 ft 2 kts 37°
2026-05-05 18:26 47.45635 8.57026 1393 ft 13 kts
2026-05-05 18:26 47.45661 8.57003 1393 ft 3 kts 279°
2026-05-05 18:26 47.45662 8.56987 1393 ft 0 kts 276°
2026-05-05 18:30 47.45663 8.56978 1393 ft 9 kts 276°
2026-05-05 18:30 47.45703 8.56430 1393 ft 101 kts 276°
2026-05-05 18:30 47.45799 8.55007 1588 ft 168 kts 274°
2026-05-05 18:31 47.45919 8.53084 2363 ft 202 kts 274°
2026-05-05 18:31 47.46077 8.51031 3262 ft 199 kts 275°
2026-05-05 18:31 47.46230 8.49010 4112 ft 197 kts 273°
2026-05-05 18:31 47.45983 8.47030 4951 ft 204 kts 240°
2026-05-05 18:32 47.44961 8.45579 5897 ft 207 kts 215°
2026-05-05 18:32 47.43875 8.44212 6812 ft 208 kts 237°
2026-05-05 18:32 47.42865 8.42620 7788 ft 231 kts 210°
2026-05-05 18:32 47.41198 8.42305 8957 ft 261 kts 172°
2026-05-05 18:33 47.39550 8.43671 10249 ft 286 kts 138°
2026-05-05 18:33 47.38587 8.46313 11503 ft 313 kts 108°
2026-05-05 18:33 47.38452 8.49766 11882 ft 361 kts 85°
2026-05-05 18:33 47.38963 8.53428 12159 ft 359 kts 77°
2026-05-05 18:34 47.39580 8.56895 13899 ft 346 kts 78°
2026-05-05 18:34 47.40014 8.60456 14973 ft 354 kts 87°
2026-05-05 18:34 47.40244 8.64073 16130 ft 361 kts 78°
2026-05-05 18:34 47.41386 8.67374 17338 ft 368 kts 50°
2026-05-05 18:35 47.43352 8.69731 18596 ft 371 kts 31°
2026-05-05 18:35 47.45636 8.71577 19627 ft 378 kts 26°
2026-05-05 18:35 47.47983 8.73409 20584 ft 384 kts 29°
2026-05-05 18:35 47.50233 8.75584 21570 ft 388 kts 37°
2026-05-05 18:36 47.52389 8.78046 22523 ft 394 kts 39°
2026-05-05 18:36 47.54591 8.80510 23444 ft 399 kts 36°
2026-05-05 18:36 47.57083 8.82339 24206 ft 403 kts 16°
2026-05-05 18:36 47.59848 8.83149 24979 ft 407 kts
2026-05-05 18:37 47.62688 8.83556 25724 ft 412 kts
2026-05-05 18:37 47.65561 8.83985 26454 ft 418 kts
2026-05-05 18:37 47.68413 8.84741 27196 ft 424 kts 10°
2026-05-05 18:37 47.71314 8.85656 27944 ft 428 kts
2026-05-05 18:38 47.74268 8.86426 28646 ft 434 kts
2026-05-05 18:38 47.76268 8.86872 29140 ft 437 kts
2026-05-05 18:38 47.80289 8.87846 30038 ft 444 kts
2026-05-05 18:38 47.83346 8.88681 30607 ft 449 kts
2026-05-05 18:39 47.85436 8.89240 30997 ft 452 kts
2026-05-05 18:39 47.88513 8.90016 31525 ft 456 kts
2026-05-05 18:39 47.91658 8.90799 32120 ft 460 kts
2026-05-05 18:39 47.94857 8.91628 32640 ft 465 kts
2026-05-05 18:40 47.98056 8.92467 33191 ft 468 kts
2026-05-05 18:40 48.01246 8.93292 33909 ft 467 kts
2026-05-05 18:40 48.04453 8.94114 34476 ft 467 kts
2026-05-05 18:40 48.07618 8.94932 35040 ft 466 kts
2026-05-05 18:41 48.10816 8.95764 35649 ft 465 kts
2026-05-05 18:41 48.13991 8.96590 36234 ft 464 kts
2026-05-05 18:41 48.17182 8.97417 36715 ft 464 kts
2026-05-05 18:41 48.20375 8.98247 37202 ft 465 kts
2026-05-05 18:42 48.23558 8.99077 37654 ft 465 kts
2026-05-05 18:42 48.26769 8.99916 37838 ft 472 kts
2026-05-05 18:42 48.30053 9.00771 37854 ft 483 kts
2026-05-05 18:42 48.33394 9.01645 37852 ft 492 kts
2026-05-05 18:43 48.40228 9.03438 37849 ft 506 kts
2026-05-05 18:43 48.47123 9.05249 37848 ft 502 kts
2026-05-05 18:44 48.50531 9.06148 38603 ft 484 kts
2026-05-05 18:44 48.53761 9.07003 39705 ft 464 kts
2026-05-05 18:44 48.56942 9.07840 40056 ft 464 kts
2026-05-05 18:44 48.60139 9.08681 40381 ft 463 kts
2026-05-05 18:45 48.63282 9.09515 40708 ft 462 kts
2026-05-05 18:45 48.66464 9.10360 41024 ft 462 kts
2026-05-05 18:45 48.69598 9.11191 41331 ft 461 kts
2026-05-05 18:45 48.72755 9.12029 41634 ft 460 kts
2026-05-05 18:46 48.75907 9.12868 41941 ft 459 kts
2026-05-05 18:46 48.79067 9.13710 42208 ft 459 kts
2026-05-05 18:46 48.82216 9.14550 42485 ft 459 kts
2026-05-05 18:46 48.85368 9.15391 42752 ft 458 kts
2026-05-05 18:47 48.88485 9.16225 43011 ft 458 kts
2026-05-05 18:47 48.91629 9.17067 43262 ft 457 kts
2026-05-05 18:47 48.94770 9.17909 43515 ft 457 kts
2026-05-05 18:47 48.97902 9.18750 43732 ft 457 kts
2026-05-05 18:48 49.01016 9.19586 43966 ft 457 kts
2026-05-05 18:48 49.04147 9.20430 44195 ft 457 kts
2026-05-05 18:48 49.07280 9.21273 44418 ft 456 kts
2026-05-05 18:48 49.10411 9.22118 44613 ft 456 kts
2026-05-05 18:49 49.13504 9.22954 44788 ft 456 kts
2026-05-05 18:49 49.16646 9.23804 44836 ft 459 kts
2026-05-05 18:49 49.23015 9.25529 44840 ft 467 kts
2026-05-05 18:50 49.29442 9.27276 44840 ft 475 kts
2026-05-05 18:50 49.36020 9.29068 44843 ft 482 kts
2026-05-05 18:51 49.42656 9.30881 44842 ft 489 kts
2026-05-05 18:51 49.49418 9.32734 44845 ft 495 kts
2026-05-05 18:52 49.56176 9.34591 44840 ft 494 kts
2026-05-05 18:52 49.62929 9.36452 44834 ft 491 kts
2026-05-05 18:53 49.69654 9.38310 44829 ft 488 kts
2026-05-05 18:53 49.76287 9.40147 44825 ft 487 kts
2026-05-05 18:54 49.82980 9.42006 44833 ft 489 kts
2026-05-05 18:54 49.89696 9.43878 44836 ft 491 kts
2026-05-05 18:55 49.96444 9.45764 44834 ft 493 kts
2026-05-05 18:55 50.03191 9.47654 44833 ft 491 kts
2026-05-05 18:56 50.09927 9.49228 44827 ft 487 kts
2026-05-05 18:56 50.16608 9.50368 44821 ft 485 kts
2026-05-05 18:57 50.23300 9.51572 44817 ft 483 kts
2026-05-05 18:57 50.29991 9.52744 44826 ft 484 kts
2026-05-05 18:58 50.36712 9.53944 44823 ft 486 kts
2026-05-05 18:58 50.43440 9.55139 44822 ft 487 kts
2026-05-05 18:59 50.50188 9.56345 44813 ft 488 kts
2026-05-05 18:59 50.56934 9.57553 44812 ft 486 kts
2026-05-05 19:00 50.63604 9.58751 44804 ft 483 kts
2026-05-05 19:00 50.70295 9.59956 44799 ft 481 kts
2026-05-05 19:01 50.76950 9.61158 44796 ft 482 kts
2026-05-05 19:01 50.83630 9.62369 44793 ft 483 kts
2026-05-05 19:02 50.90321 9.63584 44800 ft 484 kts
2026-05-05 19:02 50.96980 9.64797 44803 ft 485 kts
2026-05-05 19:03 51.03702 9.66025 44801 ft 486 kts
2026-05-05 19:03 51.10429 9.67258 44805 ft 487 kts
2026-05-05 19:04 51.17176 9.68498 44807 ft 487 kts
2026-05-05 19:04 51.23924 9.68949 44803 ft 484 kts 356°
2026-05-05 19:05 51.30651 9.68656 44804 ft 483 kts 356°
2026-05-05 19:05 51.37330 9.68371 44803 ft 481 kts 356°
2026-05-05 19:06 51.44016 9.68075 44807 ft 480 kts 356°
2026-05-05 19:06 51.50687 9.67788 44807 ft 479 kts 356°
2026-05-05 19:07 51.57367 9.67493 44816 ft 480 kts 356°
2026-05-05 19:07 51.64057 9.67201 44815 ft 482 kts 356°
2026-05-05 19:08 51.70738 9.66906 44820 ft 484 kts 356°
2026-05-05 19:08 51.77478 9.66610 44823 ft 485 kts 356°
2026-05-05 19:09 51.84232 9.66311 44825 ft 486 kts 356°
2026-05-05 19:09 51.91001 9.66011 44827 ft 485 kts 356°
2026-05-05 19:10 51.97717 9.65712 44820 ft 483 kts 356°
2026-05-05 19:10 52.04430 9.65412 44824 ft 482 kts 356°
2026-05-05 19:11 52.11129 9.65111 44830 ft 480 kts 356°
2026-05-05 19:11 52.17649 9.63433 44850 ft 475 kts 342°
2026-05-05 19:12 52.23983 9.60308 44853 ft 478 kts 342°
2026-05-05 19:12 52.30521 9.57878 44858 ft 482 kts 345°
2026-05-05 19:13 52.36990 9.55123 44861 ft 482 kts 342°
2026-05-05 19:13 52.43506 9.52495 44860 ft 480 kts 344°
2026-05-05 19:14 52.49953 9.49832 44851 ft 476 kts 343°
2026-05-05 19:14 52.56341 9.47194 44848 ft 474 kts 343°
2026-05-05 19:15 52.62754 9.44545 44851 ft 477 kts 343°
2026-05-05 19:15 52.65983 9.43197 44709 ft 481 kts 343°
2026-05-05 19:15 52.69264 9.41836 44044 ft 486 kts 343°
2026-05-05 19:16 52.72518 9.40491 43408 ft 484 kts 343°
2026-05-05 19:16 52.75774 9.39137 42775 ft 478 kts 343°
2026-05-05 19:16 52.78981 9.37795 42152 ft 471 kts 342°
2026-05-05 19:16 52.82140 9.36474 41538 ft 464 kts 342°
2026-05-05 19:17 52.85251 9.35173 40931 ft 458 kts 342°
2026-05-05 19:17 52.88303 9.33894 40338 ft 453 kts 342°
2026-05-05 19:17 52.91357 9.32610 39749 ft 452 kts 342°
2026-05-05 19:17 52.94418 9.31322 39155 ft 451 kts 342°
2026-05-05 19:18 52.97468 9.30038 38559 ft 453 kts 341°
2026-05-05 19:18 53.00498 9.28761 37911 ft 453 kts 341°
2026-05-05 19:18 53.03573 9.27463 37303 ft 456 kts 341°
2026-05-05 19:18 53.06683 9.26145 36700 ft 464 kts 341°
2026-05-05 19:19 53.09845 9.24803 36085 ft 471 kts 341°
2026-05-05 19:19 53.13015 9.23461 35466 ft 477 kts 341°
2026-05-05 19:19 53.16248 9.22091 34834 ft 480 kts 341°
2026-05-05 19:19 53.19490 9.20713 34205 ft 482 kts 341°
2026-05-05 19:20 53.22750 9.19321 33528 ft 484 kts 341°
2026-05-05 19:20 53.26014 9.17929 32885 ft 484 kts 341°
2026-05-05 19:20 53.29286 9.16532 32238 ft 483 kts 341°
2026-05-05 19:20 53.32506 9.15153 31619 ft 483 kts 341°
2026-05-05 19:21 53.35766 9.13754 30972 ft 482 kts 341°
2026-05-05 19:21 53.39017 9.12358 30340 ft 481 kts 341°
2026-05-05 19:21 53.42271 9.10960 29667 ft 478 kts 341°
2026-05-05 19:21 53.45444 9.09595 29035 ft 470 kts 341°
2026-05-05 19:22 53.48570 9.08247 28422 ft 463 kts 341°
2026-05-05 19:22 53.51676 9.06903 27811 ft 457 kts 341°
2026-05-05 19:22 53.54750 9.05572 27218 ft 454 kts 341°
2026-05-05 19:22 53.57800 9.04249 26616 ft 451 kts 342°
2026-05-05 19:23 53.60803 9.02946 26037 ft 448 kts 342°
2026-05-05 19:23 53.63829 9.01630 25446 ft 446 kts 342°
2026-05-05 19:23 53.65820 9.00764 25069 ft 444 kts 342°
2026-05-05 19:23 53.68794 8.99469 24475 ft 439 kts 342°
2026-05-05 19:24 53.71734 8.98187 23899 ft 433 kts 342°
2026-05-05 19:24 53.74631 8.96919 23307 ft 428 kts 342°
2026-05-05 19:24 53.77495 8.95666 22727 ft 422 kts 342°
2026-05-05 19:24 53.80318 8.94429 22166 ft 417 kts 342°
2026-05-05 19:25 53.83122 8.93197 21628 ft 415 kts 342°
2026-05-05 19:25 53.85913 8.91970 21078 ft 413 kts 342°
2026-05-05 19:25 53.88692 8.90747 20533 ft 411 kts 342°
2026-05-05 19:25 53.91446 8.89535 19988 ft 407 kts 342°
2026-05-05 19:26 53.94178 8.88330 19457 ft 402 kts 342°
2026-05-05 19:26 53.96863 8.87144 18928 ft 396 kts 342°
2026-05-05 19:26 53.99486 8.85982 18415 ft 391 kts 342°
2026-05-05 19:26 54.02112 8.84818 17868 ft 387 kts 342°
2026-05-05 19:27 54.04710 8.83666 17357 ft 383 kts 342°
2026-05-05 19:27 54.07280 8.82524 16853 ft 381 kts 342°
2026-05-05 19:27 54.09854 8.81378 16347 ft 381 kts 342°
2026-05-05 19:27 54.12392 8.80248 15851 ft 379 kts 342°
2026-05-05 19:28 54.14939 8.79113 15350 ft 376 kts 342°
2026-05-05 19:28 54.17467 8.77985 14853 ft 373 kts 342°
2026-05-05 19:28 54.19972 8.76865 14358 ft 369 kts 342°
2026-05-05 19:28 54.22449 8.75756 13876 ft 366 kts 342°
2026-05-05 19:29 54.24878 8.74668 13368 ft 362 kts 342°
2026-05-05 19:29 54.27307 8.73578 12898 ft 356 kts 342°
2026-05-05 19:29 54.29656 8.72527 12435 ft 340 kts 342°
2026-05-05 19:29 54.31895 8.71522 11992 ft 324 kts 342°
2026-05-05 19:30 54.34033 8.70557 11576 ft 310 kts 342°
2026-05-05 19:30 54.36054 8.69644 11175 ft 299 kts 342°
2026-05-05 19:30 54.38046 8.68745 10793 ft 290 kts 342°
2026-05-05 19:30 54.39981 8.67870 10415 ft 285 kts 342°
2026-05-05 19:31 54.41895 8.67003 10040 ft 284 kts 342°
2026-05-05 19:31 54.43816 8.66133 9652 ft 285 kts 343°
2026-05-05 19:31 54.45716 8.65273 9267 ft 285 kts 343°
2026-05-05 19:31 54.47636 8.64402 8886 ft 284 kts 343°
2026-05-05 19:32 54.49551 8.63534 8508 ft 282 kts 343°
2026-05-05 19:32 54.51439 8.62677 8134 ft 279 kts 344°
2026-05-05 19:32 54.53313 8.61824 7769 ft 277 kts 344°
2026-05-05 19:32 54.55147 8.60990 7417 ft 274 kts 344°
2026-05-05 19:33 54.56993 8.60148 7054 ft 273 kts 345°
2026-05-05 19:33 54.58824 8.59312 6738 ft 270 kts 345°
2026-05-05 19:33 54.60645 8.58482 6394 ft 270 kts 346°
2026-05-05 19:33 54.62447 8.57659 6027 ft 271 kts 346°
2026-05-05 19:34 54.64274 8.56824 5664 ft 271 kts 347°
2026-05-05 19:34 54.66098 8.55989 5303 ft 269 kts 347°
2026-05-05 19:34 54.67900 8.55163 4950 ft 267 kts 347°
2026-05-05 19:35 54.71456 8.53534 4239 ft 264 kts 347°
2026-05-05 19:35 54.73237 8.52714 3895 ft 263 kts 348°
2026-05-05 19:35 54.75008 8.51901 3545 ft 263 kts 348°
2026-05-05 19:35 54.76770 8.51090 3198 ft 262 kts 348°
2026-05-05 19:36 54.78433 8.49909 2990 ft 258 kts 333°
2026-05-05 19:36 54.79890 8.48364 3016 ft 231 kts 324°
2026-05-05 19:36 54.81191 8.46751 3016 ft 210 kts 330°
2026-05-05 19:36 54.82498 8.45399 2596 ft 222 kts 331°
2026-05-05 19:37 54.83668 8.43703 2266 ft 224 kts 321°
2026-05-05 19:37 54.84766 8.42057 2030 ft 179 kts 326°
2026-05-05 19:37 54.85702 8.40880 1622 ft 149 kts 330°
2026-05-05 19:37 54.86447 8.39972 1194 ft 121 kts 334°
2026-05-05 19:38 54.87137 8.39177 808 ft 119 kts 333°
2026-05-05 19:38 54.87794 8.38387 678 ft 111 kts 329°
2026-05-05 19:38 54.88437 8.37585 457 ft 114 kts 330°
2026-05-05 19:38 54.89065 8.36817 335 ft 111 kts 331°
2026-05-05 19:39 54.89714 8.36033 212 ft 113 kts 329°
2026-05-05 19:39 54.90349 8.35245 85 ft 112 kts 329°
2026-05-05 19:39 54.90950 8.34504 39 ft 90 kts 329°
2026-05-05 19:39 54.91307 8.34080 36 ft 43 kts 323°
2026-05-05 19:40 54.91519 8.33805 36 ft 33 kts 321°
2026-05-05 19:40 54.91690 8.33595 39 ft 30 kts 324°
2026-05-05 19:40 54.91851 8.33398 36 ft 26 kts 324°
2026-05-05 19:40 54.91938 8.33350 36 ft 10 kts 40°
2026-05-05 19:41 54.91957 8.33491 34 ft 15 kts 84°
2026-05-05 19:41 54.91982 8.33684 36 ft 16 kts 64°
2026-05-05 19:41 54.92016 8.33769 40 ft 6 kts 63°
2026-05-05 19:41 54.92022 8.33847 41 ft 7 kts 84°
2026-05-05 19:42 54.92024 8.33874 42 ft 0 kts 84°
2026-05-05 19:42 54.92025 8.33891 42 ft 0 kts 83°